Location: Buffign�court
(47.8126°N, 6.0176°E)
Time: 18:11:00
(UTC+00:00)

Cosmos 2322 - Pass Details

Date: 16 June 2021
Orbit: 839 x 856 km, 71.0° (Epoch: 01 August)

Event Time Altitude Azimuth Distance (km) Brightness Sun altitude
Exits shadow 22:03:07 12° 204° (SSW) 2,293 5.6 -15.8°
Maximum altitude 22:08:20 87° 117° (ESE) 848 3.6 -16.1°
Drops below altitude 10° 22:14:01 10° 28° (NNE) 2,469 6.7 -16.4°
Sets 22:16:28 0° 28° (NNE) 3,409 7.5 -16.6°
